Crescent City, CA

4:22 PM PDT on April 26, 2018 (GMT -0700)
McNamara

Weather History for KCEC - March, 2013

Change the Weather History Date:

Tuesday, March 26, 2013

  Actual Average Record
Temperature  
Mean Temperature 49 °F 49 °F  
Max Temperature 55 °F 55 °F 73 °F (1969)
Min Temperature 42 °F 42 °F 32 °F (1972)
Degree Days  
Heating Degree Days 16 16  
Month to date heating degree days 430  
Since 1 July heating degree days 3603  
Cooling Degree Days 0 0  
Month to date cooling degree days 0  
Year to date cooling degree days 0  
Moisture  
Dew Point 43 °F    
Average Humidity 80    
Maximum Humidity 93    
Minimum Humidity 66    
Precipitation  
Precipitation 0.00 in 0.28 in 1.22 in (1985)
Month to date precipitation 4.04 6.44  
Year to date precipitation 12.51 25.71  
Since 1 July precipitation 46.21  
Snow  
Snow 0.00 in - - ()
Month to date snowfall 0.0  
Since 1 July snowfall 0.0  
Snow Depth -    
Sea Level Pressure  
Sea Level Pressure 30.01 in    
Wind  
Wind Speed 3 mph (WNW)    
Max Wind Speed 9 mph    
Max Gust Speed 13 mph    
Visibility 10 miles    
Events Rain    
T = Trace of Precipitation, MM = Missing Value Source: NWS Daily Summary

Daily Weather History Graph

Daily Weather History Graph

Search for Another Location

Airport or City:

Astronomy

Mar. 26, 2013 Rise Set
Actual Time 7:09 AM PDT 7:36 PM PDT
Civil Twilight 6:41 AM PDT 8:04 PM PDT
Nautical Twilight 6:08 AM PDT 8:37 PM PDT
Astronomical Twilight 5:35 AM PDT 9:10 PM PDT
Moon 7:19 PM PDT 6:29 AM PDT
Length of Visible Light 13h 22m
Length of Day
12h 26m
Full, 100% of the Moon is Illuminated
Mar 26
Full
Mar 27
Full
Apr 2
Last Quarter
Apr 10
New
Apr 18
First Quarter

Hourly Weather History & Observations

Time (PDT) Temp. Windchill Dew Point Humidity Pressure Visibility Wind Dir Wind Speed Gust Speed Precip Events Conditions
12:18 AM 46.4 °F - 42.8 °F 87% 30.05 in 10.0 mi Calm Calm - N/A   Overcast
12:56 AM 46.0 °F - 43.0 °F 89% 30.04 in 10.0 mi Calm Calm - N/A   Overcast
1:56 AM 46.0 °F - 44.1 °F 93% 30.04 in 10.0 mi Calm Calm - N/A   Overcast
2:56 AM 46.0 °F - 43.0 °F 89% 30.04 in 10.0 mi Calm Calm - N/A   Overcast
3:51 AM 44.6 °F - 42.8 °F 93% 30.03 in 10.0 mi Calm Calm - N/A   Overcast
3:56 AM 45.0 °F - 42.1 °F 90% 30.03 in 10.0 mi Calm Calm - N/A   Overcast
4:07 AM 46.4 °F - 42.8 °F 87% 30.03 in 10.0 mi Calm Calm - N/A   Overcast
4:56 AM 45.0 °F 42.6 °F 41.0 °F 86% 30.02 in 10.0 mi East 4.6 mph - N/A   Overcast
5:13 AM 44.6 °F - 41.0 °F 87% 30.02 in 10.0 mi Calm Calm - N/A   Overcast
5:56 AM 44.1 °F - 41.0 °F 89% 30.02 in 10.0 mi Calm Calm - N/A   Mostly Cloudy
6:56 AM 43.0 °F - 39.9 °F 89% 30.01 in 10.0 mi Calm Calm - N/A   Overcast
7:56 AM 44.1 °F - 41.0 °F 89% 30.01 in 10.0 mi Calm Calm - N/A   Scattered Clouds
8:56 AM 46.9 °F - 43.0 °F 86% 30.02 in 10.0 mi Calm Calm - N/A   Scattered Clouds
9:56 AM 50.0 °F - 43.0 °F 77% 30.02 in 10.0 mi Calm Calm - N/A   Overcast
10:56 AM 51.1 °F - 44.1 °F 77% 30.02 in 9.0 mi NNW 6.9 mph - N/A   Overcast
11:56 AM 54.0 °F - 44.1 °F 69% 30.01 in 10.0 mi NW 6.9 mph - N/A   Overcast
12:56 PM 53.1 °F - 43.0 °F 69% 30.01 in 10.0 mi WNW 8.1 mph - N/A   Overcast
1:56 PM 53.1 °F - 46.0 °F 77% 30.00 in 10.0 mi NW 8.1 mph - N/A   Overcast
2:56 PM 53.1 °F - 46.0 °F 77% 30.00 in 10.0 mi West 8.1 mph - N/A   Scattered Clouds
3:56 PM 53.1 °F - 45.0 °F 74% 29.99 in 10.0 mi Variable 4.6 mph - N/A   Mostly Cloudy
4:56 PM 53.1 °F - 45.0 °F 74% 29.98 in 10.0 mi NW 6.9 mph - N/A   Mostly Cloudy
5:56 PM 51.1 °F - 44.1 °F 77% 29.97 in 10.0 mi WNW 5.8 mph - N/A   Overcast
6:56 PM 50.0 °F - 44.1 °F 80% 29.97 in 10.0 mi West 4.6 mph - N/A   Overcast
7:56 PM 50.0 °F - 45.0 °F 83% 29.97 in 10.0 mi Calm Calm - N/A   Overcast
8:56 PM 50.0 °F - 44.1 °F 80% 29.98 in 8.0 mi Calm Calm - 0.00 in Rain Light Rain
9:56 PM 48.9 °F - 45.0 °F 86% 29.98 in 10.0 mi Calm Calm - 0.00 in Rain Light Rain
10:56 PM 48.9 °F - 46.0 °F 90% 29.97 in 5.0 mi Calm Calm - 0.00 in   Overcast
11:56 PM 48.9 °F - 46.0 °F 90% 29.97 in 9.0 mi South 3.5 mph - 0.01 in Rain Light Rain